Location: Navalespino
(40.5894°N, 4.2660°W)
Time: 21:30:09
(UTC+00:00)

COSMOS 2455 - Pass Details

Date: 18 April 2024
Orbit: 898 x 911 km, 67.1° (Epoch: 23 May)

Event Time Altitude Azimuth Distance (km) Brightness Sun altitude
Rises 20:17:16 0° 339° (NNW) 3,547 6.8 -14.4°
Reaches altitude 10° 20:20:19 10° 353° (N) 2,603 5.7 -14.9°
Maximum altitude 20:25:08 24° 46° (NE) 1,797 4.3 -15.7°
Enters shadow 20:28:02 17° 84° (E) 2,129 4.3 -16.2°
